#timestamp,LO_Frequency,Hit,StdDev 
1635840015.8,286047002.2,N
1635840035.6,286047001.4,N
1635840055.5,286047001.8,N
1635840075.3,286047001.3,N
1635840095.1,286047001.7,N
1635840115.9,286047001.5,N
1635840135.7,286047001.3,N
1635840155.5,286047003.6,N
1635840175.4,286047003.4,N
1635840195.2,286047003.1,N
1635840215.1,286047006.0,Y
1635840216.0,286047006.0,P
1635840235.8,286047001.7,N
1635840255.6,286047002.8,N
1635840275.5,286046999.8,N
1635840295.3,286047000.9,N
1635840315.1,286047000.6,N
1635840335.9,286046999.8,N
1635840355.7,286047002.0,N
1635840375.5,286047001.9,N
1635840395.4,286047002.5,N
1635840415.2,286047001.4,N
1635840435.0,286047001.5,N
1635840435.9,286047001.5,N
1635840455.8,286047002.7,N
1635840475.6,286047000.1,N
1635840495.4,286047000.5,N
1635840515.3,286047002.8,N
1635840535.1,286047000.7,N
1635840536.0,286047000.7,N
1635840555.8,286046998.4,N
1635840575.7,286046996.9,N
1635840595.5,286046996.6,N
1635840615.3,286046997.8,N
1635840635.2,286046997.6,N
1635840655.9,286046997.0,N
1635840675.7,286046996.9,N
1635840695.6,286046999.6,N
1635840715.4,286046998.6,N
1635840735.2,286046998.2,N
1635840755.1,286046998.7,N
1635840756.0,286046998.7,N
1635840775.8,286046998.4,N
1635840795.6,286047000.8,N
1635840815.5,286046999.1,N
1635840835.3,286046994.9,N
1635840855.1,286046995.1,N
1635840875.9,286046996.3,N
1635840895.7,286046995.6,N
1635840915.5,286046994.9,N
1635840935.4,286046997.6,N
1635840955.2,286046997.4,N
1635840975.0,286046997.4,N
1635840975.9,286046997.4,N
1635840995.8,286046997.4,N
1635841015.6,286046996.5,N
1635841035.4,286046998.9,N
1635841055.3,286047000.7,N
1635841075.1,286047000.3,N
1635841095.8,286047000.1,N
1635841115.7,286047002.8,N
1635841135.5,286047002.8,N
1635841155.3,286047003.9,N
1635841175.2,286047003.9,N
1635841195.0,286047001.4,N
1635841195.9,286047001.4,N
1635841215.7,286047002.4,N
1635841235.6,286047000.5,N
1635841255.4,286047000.1,N
1635841275.2,286046998.8,N
1635841295.1,286046996.8,N
1635841296.0,286046996.8,N
1635841315.8,286046997.5,N
1635841335.6,286046997.6,N
1635841355.5,286046997.6,N
1635841375.3,286046997.7,N
1635841395.1,286046996.8,N
1635841415.9,286046998.3,N
1635841435.7,286047001.0,N
1635841455.5,286046999.0,N
1635841475.4,286046996.6,N
1635841495.2,286047000.8,N
1635841515.0,286047001.1,N
1635841515.9,286047001.1,N
1635841535.8,286046999.4,N
1635841555.6,286046999.1,N
1635841575.4,286046996.7,N
1635841595.3,286046997.0,N
1635841615.1,286046998.2,N
1635841635.8,286046999.7,N
1635841655.7,286047005.9,N
1635841675.5,286047004.5,N
1635841695.3,286047005.8,N
1635841715.2,286047003.5,N
1635841735.0,286047003.0,N
1635841735.9,286047003.0,N
1635841755.7,286047002.0,N
1635841775.6,286046998.4,N
1635841795.4,286046997.5,N
1635841815.2,286046996.2,N
1635841835.1,286046995.8,N
1635841836.0,286046995.8,N
1635841855.8,286046995.9,N
1635841875.6,286046994.6,N
1635841895.5,286046994.7,N
1635841915.3,286046994.8,N
1635841935.1,286046994.5,N
1635841955.9,286046994.8,N
1635841975.7,286046994.4,N
1635841995.5,286046994.4,N
1635842015.4,286046994.3,N
1635842035.2,286046991.8,N
1635842055.0,286046992.3,N
1635842055.9,286046992.3,N
1635842075.8,286046992.0,N
1635842095.6,286046991.8,N
1635842115.4,286046992.1,N
1635842135.3,286046992.9,N
1635842155.1,286046992.8,N
1635842175.8,286046992.4,N
1635842195.7,286046991.9,N
1635842215.5,286046994.3,N
1635842235.3,286046991.8,N
1635842255.2,286046994.1,N
1635842275.0,286046993.8,N
1635842275.9,286046993.8,N
1635842295.7,286046995.9,N
1635842315.6,286046996.7,N
1635842335.4,286046997.0,N
1635842355.2,286046996.7,N
1635842375.1,286046997.5,N
1635842376.0,286046997.5,N
1635842395.8,286046996.2,N
1635842415.6,286046996.3,N
1635842435.5,286046994.5,Y
1635842455.3,286046998.4,P
1635842475.1,286046999.3,N
1635842495.9,286046999.2,N
1635842515.7,286046996.7,N
1635842535.5,286046999.5,N
1635842555.4,286046996.8,N
1635842575.2,286046997.7,N
1635842595.0,286046997.8,N
1635842595.9,286046997.8,N
1635842615.8,286046996.8,N
1635842635.6,286046996.9,N
1635842655.4,286046999.4,N
1635842675.3,286046999.4,N
1635842695.1,286046998.2,N
1635842715.8,286047000.8,N
1635842735.7,286047001.2,N
1635842755.5,286046999.7,N
1635842775.3,286047002.4,N
1635842795.2,286046999.9,N
1635842815.0,286047002.3,N
1635842815.9,286047002.3,N
1635842835.7,286047001.2,N
1635842855.6,286047000.8,N
1635842875.4,286046998.5,N
1635842895.2,286046998.7,N
1635842915.1,286046998.7,N
1635842916.0,286046998.7,N
1635842935.8,286046999.5,N
1635842955.6,286046999.2,N
1635842975.5,286046996.5,N
1635842995.3,286046997.0,N
1635843015.1,286046996.5,N
1635843035.9,286046999.3,N
1635843055.7,286046997.0,N
1635843075.5,286046997.0,N
1635843095.4,286046997.2,N
1635843115.2,286046997.0,N
1635843135.0,286046999.5,N
1635843135.9,286046999.5,N
1635843155.8,286046999.1,N
1635843175.6,286046998.3,N
1635843195.4,286046998.5,N
1635843215.3,286046998.6,N
1635843235.1,286047000.7,N
1635843255.8,286047000.3,N
1635843275.7,286047000.6,N
1635843295.5,286047001.1,N
1635843315.3,286046998.2,N
1635843335.2,286047000.0,N
1635843355.9,286046999.7,N
1635843375.7,286047002.3,N
1635843395.6,286047002.5,N
1635843415.4,286047002.9,N
1635843435.2,286047004.8,N
1635843455.1,286047004.9,N
1635843456.0,286047004.9,N
1635843475.8,286047005.5,N
1635843495.6,286047005.2,N
1635843515.5,286047004.5,N
1635843535.3,286047002.9,N
1635843555.1,286047002.6,N
1635843575.9,286047000.9,N
1635843595.7,286046998.1,N
